TimeCDT,TemperatureF,Dew PointF,Humidity,Sea Level PressureIn,VisibilityMPH,Wind Direction,Wind SpeedMPH,Gust SpeedMPH,PrecipitationIn,Events,Conditions,WindDirDegrees,DateUTC
12:15 AM,26.6,24.8,93,30.37,10.0,Calm,Calm,-,N/A,,Clear,0,2013-03-27 05:15:00
12:35 AM,26.6,21.2,80,30.37,10.0,Calm,Calm,-,N/A,,Clear,0,2013-03-27 05:35:00
1:15 AM,24.8,23.0,93,30.37,10.0,Calm,Calm,-,N/A,,Clear,0,2013-03-27 06:15:00
1:55 AM,24.8,23.0,93,30.38,10.0,Calm,Calm,-,N/A,,Clear,0,2013-03-27 06:55:00
2:15 AM,24.8,23.0,93,30.37,10.0,Calm,Calm,-,N/A,,Clear,0,2013-03-27 07:15:00
2:35 AM,24.8,21.2,86,30.37,10.0,Calm,Calm,-,N/A,,Clear,0,2013-03-27 07:35:00
2:55 AM,24.8,21.2,86,30.37,10.0,Calm,Calm,-,N/A,,Clear,0,2013-03-27 07:55:00
3:15 AM,23.0,21.2,93,30.37,10.0,Calm,Calm,-,N/A,,Clear,0,2013-03-27 08:15:00
3:35 AM,23.0,21.2,93,30.36,10.0,Calm,Calm,-,N/A,,Clear,0,2013-03-27 08:35:00
3:55 AM,23.0,19.4,86,30.37,10.0,Calm,Calm,-,N/A,,Clear,0,2013-03-27 08:55:00
4:15 AM,24.8,21.2,86,30.37,10.0,Calm,Calm,-,N/A,,Clear,0,2013-03-27 09:15:00
4:35 AM,24.8,19.4,80,30.36,10.0,Calm,Calm,-,N/A,,Clear,0,2013-03-27 09:35:00
4:55 AM,23.0,21.2,93,30.36,10.0,Calm,Calm,-,N/A,,Clear,0,2013-03-27 09:55:00
5:15 AM,23.0,19.4,86,30.36,10.0,Calm,Calm,-,N/A,,Clear,0,2013-03-27 10:15:00
5:35 AM,23.0,19.4,86,30.37,10.0,Calm,Calm,-,N/A,,Clear,0,2013-03-27 10:35:00
5:55 AM,21.2,17.6,86,30.37,10.0,Calm,Calm,-,N/A,,Clear,0,2013-03-27 10:55:00
6:15 AM,23.0,19.4,86,30.38,10.0,Calm,Calm,-,N/A,,Clear,0,2013-03-27 11:15:00
6:35 AM,23.0,19.4,86,30.39,10.0,Calm,Calm,-,N/A,,Clear,0,2013-03-27 11:35:00
6:55 AM,23.0,19.4,86,30.40,8.0,Calm,Calm,-,N/A,,Clear,0,2013-03-27 11:55:00
7:15 AM,23.0,19.4,86,30.39,8.0,Calm,Calm,-,N/A,,Clear,0,2013-03-27 12:15:00
7:35 AM,24.8,21.2,86,30.40,9.0,Calm,Calm,-,N/A,,Clear,0,2013-03-27 12:35:00
7:55 AM,26.6,23.0,86,30.41,9.0,Calm,Calm,-,N/A,,Clear,0,2013-03-27 12:55:00
8:15 AM,26.6,24.8,93,30.40,9.0,Calm,Calm,-,N/A,,Clear,0,2013-03-27 13:15:00
8:35 AM,28.4,26.6,93,30.41,10.0,Calm,Calm,-,N/A,,Clear,0,2013-03-27 13:35:00
8:55 AM,30.2,26.6,86,30.42,10.0,Calm,Calm,-,N/A,,Clear,0,2013-03-27 13:55:00
9:35 AM,35.6,26.6,70,30.41,10.0,West,3.5,-,N/A,,Clear,280,2013-03-27 14:35:00
9:55 AM,35.6,24.8,65,30.41,10.0,Calm,Calm,-,N/A,,Clear,0,2013-03-27 14:55:00
10:15 AM,37.4,24.8,60,30.42,10.0,West,6.9,-,N/A,,Clear,260,2013-03-27 15:15:00
10:35 AM,39.2,26.6,61,30.42,10.0,Calm,Calm,-,N/A,,Clear,0,2013-03-27 15:35:00
11:15 AM,39.2,24.8,56,30.42,10.0,SW,6.9,-,N/A,,Partly Cloudy,230,2013-03-27 16:15:00
11:35 AM,41.0,24.8,53,30.42,10.0,Calm,Calm,-,N/A,,Partly Cloudy,0,2013-03-27 16:35:00
11:55 AM,41.0,24.8,53,30.42,10.0,North,3.5,-,N/A,,Scattered Clouds,350,2013-03-27 16:55:00
12:15 PM,41.0,24.8,53,30.43,10.0,Calm,Calm,-,N/A,,Partly Cloudy,0,2013-03-27 17:15:00
12:35 PM,42.8,24.8,49,30.42,10.0,SSW,5.8,-,N/A,,Clear,210,2013-03-27 17:35:00
12:55 PM,42.8,21.2,42,30.41,10.0,SSE,4.6,-,N/A,,Partly Cloudy,160,2013-03-27 17:55:00
1:15 PM,42.8,24.8,49,30.41,10.0,WSW,4.6,-,N/A,,Scattered Clouds,250,2013-03-27 18:15:00
1:35 PM,42.8,24.8,49,30.40,10.0,West,3.5,-,N/A,,Clear,270,2013-03-27 18:35:00
2:15 PM,42.8,24.8,49,30.39,10.0,WNW,4.6,-,N/A,,Partly Cloudy,290,2013-03-27 19:15:00
2:35 PM,44.6,24.8,46,30.38,10.0,Calm,Calm,-,N/A,,Clear,0,2013-03-27 19:35:00
2:55 PM,44.6,26.6,49,30.37,10.0,WNW,3.5,-,N/A,,Clear,290,2013-03-27 19:55:00
3:15 PM,44.6,26.6,49,30.37,10.0,West,5.8,-,N/A,,Clear,260,2013-03-27 20:15:00
3:35 PM,44.6,26.6,49,30.36,10.0,Calm,Calm,-,N/A,,Clear,0,2013-03-27 20:35:00
3:55 PM,44.6,26.6,49,30.36,10.0,WNW,3.5,-,N/A,,Clear,290,2013-03-27 20:55:00
4:15 PM,44.6,26.6,49,30.36,10.0,NW,4.6,-,N/A,,Clear,310,2013-03-27 21:15:00
4:35 PM,44.6,26.6,49,30.36,10.0,NW,4.6,-,N/A,,Clear,320,2013-03-27 21:35:00
4:55 PM,44.6,26.6,49,30.35,10.0,NNW,3.5,-,N/A,,Clear,330,2013-03-27 21:55:00
5:15 PM,46.4,28.4,50,30.35,10.0,Calm,Calm,-,N/A,,Clear,0,2013-03-27 22:15:00
5:35 PM,44.6,26.6,49,30.35,10.0,Calm,Calm,-,N/A,,Clear,0,2013-03-27 22:35:00
5:55 PM,44.6,26.6,49,30.34,10.0,Calm,Calm,-,N/A,,Clear,0,2013-03-27 22:55:00
6:15 PM,44.6,26.6,49,30.34,10.0,Calm,Calm,-,N/A,,Clear,0,2013-03-27 23:15:00
6:35 PM,42.8,26.6,53,30.34,10.0,Calm,Calm,-,N/A,,Clear,0,2013-03-27 23:35:00
6:55 PM,42.8,24.8,49,30.34,10.0,North,3.5,-,N/A,,Clear,350,2013-03-27 23:55:00
7:15 PM,41.0,24.8,53,30.34,10.0,Calm,Calm,-,N/A,,Clear,0,2013-03-28 00:15:00
7:35 PM,39.2,24.8,56,30.34,10.0,Calm,Calm,-,N/A,,Clear,0,2013-03-28 00:35:00
7:55 PM,39.2,24.8,56,30.34,10.0,North,3.5,-,N/A,,Clear,350,2013-03-28 00:55:00
8:15 PM,35.6,28.4,75,30.34,10.0,North,3.5,-,N/A,,Clear,350,2013-03-28 01:15:00
8:55 PM,35.6,26.6,70,30.34,10.0,North,3.5,-,N/A,,Partly Cloudy,360,2013-03-28 01:55:00
9:35 PM,35.6,26.6,70,30.35,10.0,NNE,3.5,-,N/A,,Mostly Cloudy,30,2013-03-28 02:35:00
9:55 PM,37.4,26.6,65,30.35,10.0,NE,3.5,-,N/A,,Overcast,40,2013-03-28 02:55:00
10:15 PM,35.6,26.6,70,30.36,10.0,NE,3.5,-,N/A,,Mostly Cloudy,50,2013-03-28 03:15:00
10:35 PM,33.8,26.6,75,30.36,10.0,NE,3.5,-,N/A,,Clear,50,2013-03-28 03:35:00
10:55 PM,33.8,24.8,70,30.36,10.0,NE,5.8,-,N/A,,Clear,50,2013-03-28 03:55:00
11:15 PM,35.6,26.6,70,30.36,10.0,NE,4.6,-,N/A,,Clear,40,2013-03-28 04:15:00
11:35 PM,35.6,24.8,65,30.36,10.0,NE,3.5,-,N/A,,Clear,40,2013-03-28 04:35:00
11:55 PM,33.8,24.8,70,30.36,10.0,NE,3.5,-,N/A,,Clear,50,2013-03-28 04:55:00